TimeCDT,TemperatureF,Dew PointF,Humidity,Sea Level PressureIn,VisibilityMPH,Wind Direction,Wind SpeedMPH,Gust SpeedMPH,PrecipitationIn,Events,Conditions,WindDirDegrees,DateUTC
12:15 AM,50.0,33.8,54,30.11,10.0,Calm,Calm,-,N/A,,Clear,0,2013-04-06 05:15:00
12:35 AM,48.2,33.8,58,30.10,10.0,Calm,Calm,-,N/A,,Clear,0,2013-04-06 05:35:00
12:55 AM,46.4,33.8,62,30.10,10.0,Calm,Calm,-,N/A,,Clear,0,2013-04-06 05:55:00
1:15 AM,48.2,33.8,58,30.10,10.0,Calm,Calm,-,N/A,,Clear,0,2013-04-06 06:15:00
1:35 AM,48.2,33.8,58,30.10,10.0,East,3.5,-,N/A,,Clear,100,2013-04-06 06:35:00
1:55 AM,50.0,32.0,50,30.10,10.0,Calm,Calm,-,N/A,,Clear,0,2013-04-06 06:55:00
2:15 AM,50.0,32.0,50,30.09,10.0,East,3.5,-,N/A,,Clear,80,2013-04-06 07:15:00
2:35 AM,48.2,32.0,54,30.09,10.0,Calm,Calm,-,N/A,,Clear,0,2013-04-06 07:35:00
2:55 AM,46.4,32.0,57,30.10,10.0,South,3.5,-,N/A,,Clear,170,2013-04-06 07:55:00
3:15 AM,48.2,32.0,54,30.09,10.0,SE,3.5,-,N/A,,Clear,130,2013-04-06 08:15:00
3:35 AM,48.2,32.0,54,30.09,10.0,Calm,Calm,-,N/A,,Clear,0,2013-04-06 08:35:00
3:55 AM,48.2,30.2,50,30.09,10.0,Calm,Calm,-,N/A,,Clear,0,2013-04-06 08:55:00
4:15 AM,48.2,30.2,50,30.09,10.0,SE,3.5,-,N/A,,Clear,130,2013-04-06 09:15:00
4:35 AM,46.4,30.2,53,30.09,10.0,ESE,3.5,-,N/A,,Clear,120,2013-04-06 09:35:00
4:55 AM,48.2,30.2,50,30.08,10.0,SE,4.6,-,N/A,,Clear,130,2013-04-06 09:55:00
5:15 AM,48.2,30.2,50,30.08,10.0,SSE,3.5,-,N/A,,Clear,150,2013-04-06 10:15:00
5:35 AM,46.4,32.0,57,30.08,10.0,SE,8.1,-,N/A,,Clear,140,2013-04-06 10:35:00
5:55 AM,48.2,32.0,54,30.07,10.0,SSE,8.1,-,N/A,,Clear,150,2013-04-06 10:55:00
6:15 AM,48.2,32.0,54,30.07,10.0,SSE,6.9,-,N/A,,Clear,150,2013-04-06 11:15:00
6:35 AM,48.2,33.8,58,30.08,10.0,SSE,6.9,-,N/A,,Clear,150,2013-04-06 11:35:00
6:55 AM,48.2,32.0,54,30.08,10.0,SSE,8.1,-,N/A,,Clear,150,2013-04-06 11:55:00
7:15 AM,48.2,33.8,58,30.08,10.0,SSE,5.8,-,N/A,,Clear,150,2013-04-06 12:15:00
7:35 AM,50.0,33.8,54,30.08,10.0,SE,6.9,-,N/A,,Clear,140,2013-04-06 12:35:00
7:55 AM,50.0,33.8,54,30.08,10.0,SSE,5.8,-,N/A,,Clear,160,2013-04-06 12:55:00
8:15 AM,51.8,33.8,50,30.08,10.0,SSE,5.8,-,N/A,,Clear,160,2013-04-06 13:15:00
8:35 AM,53.6,35.6,51,30.08,10.0,SSE,6.9,-,N/A,,Clear,150,2013-04-06 13:35:00
8:55 AM,55.4,35.6,47,30.07,10.0,SSE,10.4,-,N/A,,Clear,150,2013-04-06 13:55:00
9:15 AM,57.2,37.4,48,30.07,10.0,SSE,10.4,-,N/A,,Clear,150,2013-04-06 14:15:00
9:35 AM,59.0,39.2,48,30.07,10.0,SSE,12.7,18.4,N/A,,Clear,160,2013-04-06 14:35:00
9:55 AM,60.8,39.2,45,30.06,10.0,South,12.7,-,N/A,,Clear,180,2013-04-06 14:55:00
10:15 AM,62.6,41.0,45,30.06,10.0,South,13.8,21.9,N/A,,Clear,180,2013-04-06 15:15:00
10:35 AM,64.4,41.0,42,30.06,10.0,South,13.8,19.6,N/A,,Clear,180,2013-04-06 15:35:00
10:55 AM,66.2,42.8,43,30.06,10.0,South,15.0,23.0,N/A,,Clear,180,2013-04-06 15:55:00
11:15 AM,66.2,42.8,43,30.05,10.0,South,18.4,24.2,N/A,,Clear,190,2013-04-06 16:15:00
11:35 AM,68.0,42.8,40,30.03,10.0,South,20.7,26.5,N/A,,Clear,180,2013-04-06 16:35:00
11:55 AM,66.2,42.8,43,30.03,10.0,South,20.7,26.5,N/A,,Clear,190,2013-04-06 16:55:00
12:15 PM,69.8,42.8,38,30.02,10.0,SSW,17.3,26.5,N/A,,Clear,200,2013-04-06 17:15:00
12:35 PM,69.8,42.8,38,30.00,10.0,SSW,19.6,31.1,N/A,,Clear,200,2013-04-06 17:35:00
12:55 PM,69.8,42.8,38,29.99,10.0,SSW,21.9,27.6,N/A,,Clear,200,2013-04-06 17:55:00
1:15 PM,69.8,42.8,38,29.98,10.0,SSW,19.6,26.5,N/A,,Clear,200,2013-04-06 18:15:00
1:35 PM,71.6,42.8,35,29.96,10.0,South,17.3,25.3,N/A,,Clear,180,2013-04-06 18:35:00
1:55 PM,71.6,42.8,35,29.95,10.0,SSW,19.6,25.3,N/A,,Clear,200,2013-04-06 18:55:00
2:15 PM,71.6,42.8,35,29.95,10.0,South,20.7,34.5,N/A,,Clear,180,2013-04-06 19:15:00
2:35 PM,71.6,42.8,35,29.93,10.0,South,21.9,27.6,N/A,,Clear,180,2013-04-06 19:35:00
2:55 PM,71.6,41.0,33,29.91,10.0,South,21.9,34.5,N/A,,Clear,190,2013-04-06 19:55:00
3:15 PM,71.6,41.0,33,29.90,10.0,South,21.9,33.4,N/A,,Clear,180,2013-04-06 20:15:00
3:35 PM,71.6,39.2,31,29.88,10.0,South,20.7,28.8,N/A,,Clear,180,2013-04-06 20:35:00
3:55 PM,73.4,39.2,29,29.87,10.0,South,21.9,27.6,N/A,,Clear,190,2013-04-06 20:55:00
4:15 PM,71.6,39.2,31,29.86,10.0,South,25.3,33.4,N/A,,Clear,180,2013-04-06 21:15:00
4:35 PM,71.6,39.2,31,29.85,10.0,South,24.2,32.2,N/A,,Clear,190,2013-04-06 21:35:00
4:55 PM,71.6,39.2,31,29.84,10.0,South,24.2,33.4,N/A,,Clear,190,2013-04-06 21:55:00
5:15 PM,71.6,39.2,31,29.85,10.0,SSW,25.3,31.1,N/A,,Clear,200,2013-04-06 22:15:00
5:35 PM,71.6,39.2,31,29.86,10.0,South,25.3,32.2,N/A,,Clear,190,2013-04-06 22:35:00
5:55 PM,69.8,39.2,33,29.86,10.0,SSW,16.1,27.6,N/A,,Clear,200,2013-04-06 22:55:00
6:15 PM,68.0,39.2,35,29.84,10.0,South,17.3,20.7,N/A,,Clear,180,2013-04-06 23:15:00
6:35 PM,66.2,37.4,35,29.85,10.0,South,12.7,-,N/A,,Clear,190,2013-04-06 23:35:00
6:55 PM,66.2,37.4,35,29.85,10.0,South,15.0,-,N/A,,Clear,190,2013-04-06 23:55:00
7:15 PM,64.4,37.4,37,29.85,10.0,SSW,11.5,-,N/A,,Clear,200,2013-04-07 00:15:00
7:35 PM,66.2,37.4,35,29.85,10.0,SSW,11.5,17.3,N/A,,Clear,200,2013-04-07 00:35:00
7:55 PM,64.4,37.4,37,29.84,10.0,South,18.4,23.0,N/A,,Clear,170,2013-04-07 00:55:00
8:15 PM,66.2,37.4,35,29.85,10.0,South,13.8,-,N/A,,Partly Cloudy,190,2013-04-07 01:15:00
8:35 PM,64.4,37.4,37,29.85,10.0,SSW,17.3,-,N/A,,Partly Cloudy,200,2013-04-07 01:35:00
8:55 PM,64.4,37.4,37,29.86,10.0,SSW,13.8,-,N/A,,Clear,200,2013-04-07 01:55:00
9:15 PM,64.4,37.4,37,29.87,10.0,SSW,15.0,-,N/A,,Clear,200,2013-04-07 02:15:00
9:35 PM,64.4,37.4,37,29.88,10.0,SSW,17.3,-,N/A,,Clear,200,2013-04-07 02:35:00
9:55 PM,64.4,37.4,37,29.89,10.0,SSW,18.4,-,N/A,,Clear,200,2013-04-07 02:55:00
10:15 PM,64.4,39.2,40,29.89,10.0,SSW,17.3,-,N/A,,Scattered Clouds,210,2013-04-07 03:15:00
10:35 PM,62.6,39.2,42,29.89,10.0,SSW,16.1,23.0,N/A,,Mostly Cloudy,200,2013-04-07 03:35:00
10:55 PM,62.6,41.0,45,29.89,10.0,SSW,18.4,24.2,N/A,,Partly Cloudy,200,2013-04-07 03:55:00
11:15 PM,62.6,42.8,48,29.88,10.0,SSW,19.6,24.2,N/A,,Clear,200,2013-04-07 04:15:00
11:35 PM,62.6,42.8,48,29.88,10.0,SSW,17.3,-,N/A,,Clear,200,2013-04-07 04:35:00
11:55 PM,62.6,42.8,48,29.88,10.0,SSW,19.6,24.2,N/A,,Clear,200,2013-04-07 04:55:00